Location: Franzen
(48.6167°N, 15.3833°E)
Time: 03:36:34
(UTC+00:00)

Vanguard 1 - All Passes

Search period start: 26 July 2021 00:00
Search period end: 05 August 2021 00:00
Orbit: 651 x 3832 km, 34.2° (Epoch: 25 July)

Date Brightness Start Highest point End Pass type
(mag) Time Alt. Az. Time Alt. Az. Time Alt. Az.
26 Jul - 11:10:48 10° SSW 11:16:15 25° SSE 11:24:34 10° ESE daylight
26 Jul - 13:28:21 10° WSW 13:36:15 38° S 13:49:45 10° ESE daylight
26 Jul - 15:47:59 10° WSW 15:57:55 31° SSW 16:13:15 10° SSE daylight
26 Jul - 18:12:21 10° WSW 18:20:15 15° SW 18:29:43 10° S daylight
27 Jul - 11:30:59 10° SW 11:36:45 29° SSE 11:45:50 10° ESE daylight
27 Jul - 13:49:02 10° WSW 13:57:03 36° S 14:10:34 10° SE daylight
27 Jul - 16:09:15 10° WSW 16:18:49 26° SSW 16:32:52 10° SSE daylight
28 Jul - 09:36:02 10° SSE 09:38:29 13° SE 09:41:22 10° ESE daylight
28 Jul - 11:51:22 10° SW 11:57:20 31° SSE 12:06:58 10° ESE daylight
28 Jul - 14:09:50 10° WSW 14:17:53 33° S 14:31:09 10° SE daylight
28 Jul - 16:30:53 10° WSW 16:39:41 21° SSW 16:51:52 10° SSE daylight
29 Jul - 09:55:16 10° S 09:58:48 16° SSE 10:03:22 10° ESE daylight
29 Jul - 12:11:51 10° SW 12:17:59 32° S 12:27:58 10° ESE daylight
29 Jul - 14:30:46 10° WSW 14:38:44 30° SSW 14:51:27 10° SE daylight
29 Jul - 16:53:14 10° WSW 17:00:33 16° SSW 17:09:55 10° S daylight
30 Jul - 10:15:07 10° SSW 10:19:13 20° SSE 10:24:49 10° ESE daylight
30 Jul - 12:32:28 10° WSW 12:38:42 31° S 12:48:50 10° ESE daylight
30 Jul - 14:51:53 10° WSW 14:59:36 25° SSW 15:11:22 10° SSE daylight
30 Jul - 17:17:42 10° SW 17:21:24 11° SW 17:25:33 10° SSW daylight
31 Jul - 10:35:17 10° SSW 10:39:43 23° SSE 10:46:02 10° ESE daylight
31 Jul - 12:53:10 10° WSW 12:59:27 30° S 13:09:31 10° SE daylight
31 Jul - 15:13:18 10° WSW 15:20:30 21° SSW 15:30:47 10° SSE daylight
01 Aug - 10:55:38 10° SW 11:00:17 25° SSE 11:07:04 10° ESE daylight
01 Aug - 13:14:00 10° WSW 13:20:15 27° S 13:29:59 10° SE daylight
01 Aug - 15:35:17 10° WSW 15:41:22 16° SSW 15:49:23 10° S daylight
02 Aug - 08:59:50 10° S 09:01:58 13° SSE 09:04:22 10° SE daylight
02 Aug - 11:16:09 10° SW 11:20:55 25° S 11:27:58 10° ESE daylight
02 Aug - 13:35:01 10° WSW 13:41:04 23° SSW 13:50:07 10° SSE daylight
02 Aug - 15:58:51 10° SW 16:02:15 11° SSW 16:06:08 10° SSW daylight
03 Aug - 09:19:29 10° SSW 09:22:25 16° SSE 09:25:56 10° ESE daylight
03 Aug - 11:36:47 10° SW 11:41:36 25° S 11:48:43 10° SE daylight
03 Aug - 13:56:18 10° WSW 14:01:54 19° SSW 14:09:48 10° SSE daylight
04 Aug - 09:39:36 10° SSW 09:42:56 18° SSE 09:47:07 10° ESE daylight
04 Aug - 11:57:33 10° SW 12:02:19 23° S 12:09:15 10° SE daylight
04 Aug - 14:18:06 10° SW 14:22:45 15° SSW 14:28:46 10° S daylight
